Theta_e
314 315 317 323 319 318 319 321 319 320 321 321 321 320 319 320 319 320 321 322 323 325 324 333 333 333 333 333 334 334 334 333 332 332 332 331 329 325 327 332 334 335 322 321 322 319 319 319 320
314 316 322 323 318 318 317 319 320 320 321 321 321 321 320 320 322 322 322 321 321 324 323 328 331 332 333 333 333 332 331 329 329 331 330 326 325 325 327 334 333 335 324 321 322 319 320 321 320
314 317 321 317 316 317 318 318 318 319 321 320 320 321 321 321 321 321 322 320 320 321 320 326 328 329 331 332 331 329 328 327 327 327 326 325 325 324 324 323 329 329 317 319 320 318 318 316 315
320 321 320 314 319 318 318 317 318 319 320 320 320 318 321 320 319 319 318 318 319 320 319 323 327 329 329 329 329 329 329 327 326 325 325 325 324 322 319 320 319 317 316 317 316 315 313 312 312
320 320 315 318 319 318 316 320 319 319 319 320 320 318 319 320 318 317 317 317 317 318 319 320 324 327 329 330 329 329 329 327 327 325 325 327 317 315 314 315 316 315 313 313 312 312 311 309 307
320 317 314 317 317 316 318 320 320 319 320 320 319 319 320 320 317 317 316 316 316 318 318 319 319 322 326 328 329 330 329 327 326 325 328 331 323 314 312 313 314 312 312 311 311 308 305 304 304
319 314 317 318 318 317 318 319 318 318 317 318 319 317 318 320 318 317 317 317 316 317 318 319 319 319 319 323 326 327 328 328 327 328 330 332 328 320 311 311 312 311 310 309 306 305 304 304 304
319 314 318 316 316 318 318 318 318 318 317 318 318 315 319 318 318 318 317 317 317 317 317 318 319 320 320 318 320 322 324 325 325 329 330 331 331 327 314 311 311 309 308 306 305 304 304 304 305
318 313 314 317 316 315 317 316 318 318 318 318 318 318 318 318 318 318 317 317 316 317 318 317 318 319 320 318 318 317 316 320 322 325 326 330 330 327 320 312 309 308 306 305 305 305 304 305 305
317 313 316 316 315 317 317 316 316 316 316 317 317 317 317 317 318 318 318 318 317 316 317 318 318 318 319 319 318 317 317 317 317 321 324 329 330 327 323 315 309 307 305 305 305 305 305 305 306
319 316 317 318 319 318 317 317 318 317 313 317 317 317 317 317 317 317 317 317 317 317 316 319 318 318 318 319 319 319 318 317 316 319 325 329 327 325 322 315 310 307 305 305 306 305 306 306 306
318 318 319 318 318 317 317 318 317 317 317 316 316 317 317 316 316 317 316 316 316 316 317 316 319 320 319 317 318 319 319 318 317 318 322 323 319 316 316 313 310 308 305 306 306 305 306 306 306
315 315 317 317 317 317 316 315 316 317 316 316 316 316 316 316 316 316 315 316 315 315 316 316 316 319 320 320 319 320 320 320 320 320 318 320 321 315 315 313 311 309 306 305 306 305 305 306 306
315 315 315 315 315 315 314 314 316 316 316 316 315 316 316 315 315 315 315 315 315 315 315 315 315 315 318 320 321 322 323 322 323 323 321 319 318 317 315 314 313 310 308 305 305 305 305 305 305
315 313 312 314 314 313 314 314 313 316 315 315 316 316 316 315 314 315 314 315 315 315 316 315 315 315 316 317 320 322 325 326 324 323 322 322 320 319 316 316 316 312 309 305 305 305 305 305 305
313 312 313 313 314 315 314 312 312 316 315 316 316 316 316 312 313 313 312 313 313 314 315 315 316 315 315 318 320 322 323 326 326 325 324 323 323 322 320 319 319 315 310 307 305 305 305 305 305
312 311 312 313 314 314 313 312 313 316 315 315 315 315 311 311 311 311 311 312 312 313 313 314 315 315 314 316 319 320 322 323 325 326 326 326 324 323 323 322 321 319 313 309 306 305 304 304 304
313 312 313 313 313 312 312 310 310 314 314 314 313 312 309 308 307 307 308 309 310 311 311 312 313 316 317 317 319 321 321 322 323 325 326 325 326 325 323 322 321 319 315 311 308 305 304 303 302
312 313 312 311 312 311 311 310 311 312 314 313 310 308 306 306 305 306 307 307 308 309 310 311 311 313 315 316 317 319 321 322 323 324 323 322 322 322 321 321 320 318 316 313 310 307 305 303 301
313 312 312 311 312 312 311 311 310 311 309 308 306 306 305 305 305 305 305 306 306 306 306 308 309 310 310 311 312 314 316 319 320 320 321 320 319 319 318 318 317 317 316 314 311 308 305 303 301
313 313 312 313 311 310 309 308 309 307 307 306 305 305 305 304 304 304 305 305 305 305 305 306 307 307 308 309 311 313 314 315 316 318 317 317 317 316 315 315 315 315 314 313 312 309 306 303 301
313 311 311 312 310 310 309 310 309 308 307 305 304 304 303 303 303 303 303 304 304 304 305 305 305 305 306 306 307 308 309 310 310 309 310 309 309 311 313 313 312 312 312 311 311 309 307 304 301
311 310 310 310 309 310 310 309 309 308 308 306 304 303 302 302 302 302 303 303 304 305 305 305 305 305 305 304 304 304 305 305 306 306 306 306 306 305 305 306 307 309 308 308 308 307 307 304 302
309 310 309 308 307 311 311 311 312 309 308 305 304 303 303 302 302 302 301 301 302 302 303 304 304 305 304 304 304 303 303 303 303 304 304 304 303 302 302 302 302 303 304 305 305 305 305 304 303
309 309 313 313 311 313 314 314 313 312 306 306 303 303 302 302 301 301 301 301 301 301 301 302 302 302 302 302 303 302 301 301 301 301 301 301 301 301 301 301 301 300 300 301 302 303 303 303 302
309 310 313 314 317 314 311 315 315 306 305 304 303 302 301 300 300 300 300 300 300 299 299 298 298 298 299 299 298 298 299 299 298 296 297 298 298 299 299 299 299 300 300 299 299 299 300 301 301
314 314 314 314 311 309 312 312 307 306 304 303 302 301 300 300 299 299 300 299 298 297 296 294 293 293 293 293 293 293 293 293 293 293 293 293 293 293 295 297 298 299 299 299 298 298 298 298 298
313 312 313 313 310 310 310 310 309 308 305 302 300 300 299 298 298 298 297 297 296 293 291 291 290 290 290 290 290 290 289 289 289 289 289 289 289 289 289 290 291 293 297 298 298 298 298 296 296
308 310 312 312 312 313 308 308 309 309 305 302 300 300 300 299 297 296 295 295 294 290 289 288 288 288 288 288 288 288 288 288 288 287 288 288 288 288 288 288 287 287 288 289 292 295 297 296 296
309 310 309 313 311 309 311 312 306 305 304 302 301 301 300 299 297 294 293 292 290 289 289 288 288 288 288 287 287 287 287 287 287 287 287 286 286 287 287 287 287 287 286 286 286 287 288 289 294
Wind_Speed
6 5 4 4 4 5 4 2 3 5 3 2 2 1 2 3 3 3 3 3 4 6 14 22 22 20 19 17 15 14 14 13 12 11 10 9 8 7 5 4 4 4 2 1 1 2 3 2 3
4 2 3 1 4 3 5 3 4 4 3 2 2 1 1 2 3 4 2 3 6 6 11 20 21 21 20 18 17 16 14 13 11 10 10 8 7 7 7 7 7 5 5 3 1 0 0 1 2
4 2 3 3 3 3 2 2 3 4 5 3 2 2 2 2 2 2 1 2 7 8 10 18 21 20 20 19 18 17 16 13 12 12 10 10 10 10 11 12 8 7 5 4 4 3 3 3 3
1 2 1 4 2 3 3 1 5 3 2 3 0 4 2 3 2 3 3 3 7 8 10 15 21 21 20 20 19 18 17 15 14 13 12 13 14 15 14 13 12 10 7 5 6 5 5 5 5
4 1 3 2 4 2 4 6 4 0 3 3 3 4 8 5 2 2 3 2 6 8 11 13 17 21 22 22 20 20 19 17 16 15 14 16 12 10 10 11 11 10 8 7 7 6 6 5 6
3 1 4 1 5 5 3 7 3 2 4 4 3 1 2 3 3 2 3 5 5 9 10 14 15 18 22 22 22 21 20 19 18 17 15 18 12 8 9 11 11 11 9 9 7 6 5 5 5
1 3 3 2 4 5 2 3 3 2 7 2 1 0 3 5 5 5 6 7 6 9 12 14 16 18 20 23 23 23 22 21 20 18 18 21 17 13 9 10 11 10 10 9 7 7 6 7 6
2 3 2 3 2 4 5 3 1 2 4 3 2 2 3 6 10 9 10 11 9 11 13 14 17 19 21 23 23 24 24 22 22 21 22 21 19 18 13 12 12 11 10 9 7 7 7 7 7
1 4 2 4 5 6 5 5 3 4 8 13 5 14 19 21 17 14 15 14 14 15 17 17 17 19 21 23 25 24 24 24 25 24 24 24 22 21 17 14 14 13 12 10 9 9 8 8 8
3 3 5 2 1 3 9 4 7 7 15 21 23 19 10 15 20 18 20 19 19 19 21 21 21 20 21 23 26 27 26 27 27 27 27 26 25 24 21 18 17 15 14 13 11 10 11 10 9
5 5 3 10 17 15 6 13 9 9 6 22 25 24 24 25 19 21 21 23 24 21 18 20 22 22 22 24 24 28 28 29 29 29 29 27 29 28 25 22 20 19 17 15 14 13 13 12 11
3 12 16 12 15 16 6 10 11 15 27 30 29 27 27 25 23 26 23 23 25 23 21 20 22 22 24 25 26 26 27 29 30 31 30 30 30 26 26 25 23 21 19 18 17 16 16 14 13
4 6 7 13 14 21 21 12 12 25 30 23 21 22 24 21 18 18 21 20 18 20 21 21 21 24 24 26 28 28 28 28 28 31 32 31 32 29 27 26 25 23 22 22 20 20 19 17 16
6 8 12 13 22 26 13 12 5 20 23 23 18 19 16 16 18 18 18 19 23 22 20 21 21 21 25 26 27 30 30 29 28 28 30 31 32 31 29 28 26 26 24 23 23 22 21 20 19
7 5 7 18 18 7 6 3 8 20 21 17 23 21 24 27 18 18 19 19 20 22 22 22 21 19 23 24 24 27 31 31 32 30 28 27 30 33 32 29 28 27 26 26 25 25 25 24 22
4 1 3 6 6 3 3 6 10 16 14 23 29 30 29 12 8 4 3 2 4 8 12 14 18 16 18 23 23 24 27 30 31 30 27 27 27 29 30 28 29 29 30 29 27 27 27 26 25
2 3 5 7 4 3 4 6 12 13 22 27 30 26 8 2 5 6 6 5 6 6 5 11 13 10 11 16 21 21 22 25 27 26 27 28 27 25 27 28 29 31 32 32 30 30 29 29 28
5 4 4 6 6 6 5 10 9 23 24 28 14 11 11 14 15 11 10 8 6 6 4 3 9 12 10 12 16 18 19 21 22 24 25 26 26 27 27 28 29 30 33 34 33 32 31 31 29
3 4 5 5 9 6 9 7 12 21 26 25 9 18 20 18 16 15 14 13 8 3 1 3 5 9 8 8 11 14 18 17 18 20 21 23 24 26 27 27 27 30 33 34 34 33 33 32 31
2 4 7 6 4 2 6 12 14 18 7 11 24 22 19 18 20 22 22 23 23 20 15 9 5 4 4 6 6 8 12 16 15 16 19 19 21 22 25 26 27 28 31 33 33 34 35 34 34
5 5 5 8 3 5 5 7 7 6 19 23 21 20 19 20 23 24 25 26 26 27 25 19 12 5 2 2 5 6 7 6 8 12 14 17 20 21 21 23 24 26 29 33 33 34 36 37 38
4 3 6 4 3 3 4 5 6 7 7 7 16 20 21 21 22 23 24 25 27 28 25 22 19 16 12 8 3 1 1 4 6 8 10 11 14 17 20 21 23 26 27 30 31 32 34 37 40
7 2 1 2 3 3 4 1 7 8 3 4 12 20 21 20 21 23 23 23 24 23 24 23 21 21 19 15 11 7 4 1 5 8 7 8 10 12 15 18 21 23 25 28 29 32 34 37 39
3 2 4 2 3 2 5 6 5 5 7 7 13 20 17 16 17 18 18 19 21 20 20 20 19 19 17 16 16 15 12 8 5 6 9 10 9 8 8 9 14 19 23 26 28 30 32 34 38
4 3 3 3 1 5 1 0 7 5 7 15 16 19 15 12 13 14 16 17 17 17 17 17 17 16 16 15 14 15 15 14 14 11 9 10 11 13 12 12 11 10 12 18 24 28 30 32 35
5 5 4 5 3 4 6 5 3 8 23 26 23 18 13 11 10 11 12 12 11 10 10 10 10 11 11 12 15 15 14 14 14 14 14 14 13 13 13 15 18 19 16 14 16 21 27 31 34
3 3 3 3 0 2 4 3 4 7 11 17 19 15 12 9 5 6 8 8 9 9 10 10 10 10 10 11 12 13 14 14 15 15 16 15 14 15 15 15 13 14 17 19 19 20 22 25 30
3 4 3 2 2 4 5 5 4 6 11 9 11 14 12 7 3 3 5 5 6 6 7 7 10 12 13 12 12 12 13 14 15 16 16 17 18 19 19 19 18 17 15 15 17 19 21 25 27
1 2 1 2 4 4 2 5 0 6 11 10 10 13 11 8 7 6 4 2 1 3 6 9 11 13 14 15 16 15 15 15 14 15 16 18 19 21 24 25 25 23 22 20 18 18 20 23 26
5 5 6 3 4 3 1 8 4 6 13 17 15 15 14 12 10 9 8 5 2 3 7 11 13 15 16 18 18 20 20 21 22 21 21 23 22 21 23 24 26 29 29 27 23 20 18 21 25
Wind_Direction
320 325 342 0 49 64 311 359 91 38 33 60 2 3 227 253 212 210 152 203 229 196 187 193 196 199 205 211 205 204 203 199 194 197 201 197 190 184 180 160 171 160 138 106 73 80 95 108 120
2 12 13 4 84 72 298 134 113 155 163 1 313 327 312 309 85 129 153 180 236 216 201 197 199 202 206 209 210 210 213 213 202 204 202 216 206 207 189 183 201 196 245 231 240 296 287 163 140
73 32 10 95 115 143 174 48 92 28 123 96 352 278 299 119 112 291 237 208 229 227 211 202 204 205 208 210 210 211 214 219 209 212 220 235 239 232 233 229 206 213 243 221 238 248 249 255 245
68 65 249 88 233 266 121 61 82 24 93 116 291 314 201 229 256 280 296 218 234 231 220 206 207 209 211 215 215 213 214 219 222 224 227 240 245 244 236 234 235 244 256 237 245 246 251 253 245
21 338 46 357 286 277 73 81 72 0 306 177 155 299 311 225 247 5 346 281 233 232 225 218 215 215 215 216 217 218 219 220 222 227 232 238 238 228 218 221 229 240 244 240 243 243 243 239 237
349 8 46 331 301 301 90 95 70 340 312 175 189 258 316 205 199 231 355 338 262 235 232 224 224 224 222 222 222 221 223 225 227 229 228 240 252 252 226 222 228 236 235 236 234 235 230 213 203
34 74 221 265 286 335 133 98 76 22 341 62 30 119 288 225 248 257 286 314 274 247 241 236 229 227 229 226 226 226 226 228 230 228 225 235 250 256 257 232 233 233 230 232 224 218 200 189 188
331 95 278 272 255 273 169 125 116 340 292 340 301 259 241 291 292 276 279 294 274 256 254 245 240 234 231 232 229 228 229 230 230 227 229 237 246 253 256 245 236 234 233 231 226 215 203 200 201
334 59 257 258 33 331 10 32 4 311 274 293 278 273 291 295 281 289 293 290 273 258 254 255 247 241 237 233 232 232 230 230 231 231 233 237 242 250 256 256 243 238 237 234 226 218 213 213 214
126 123 235 173 109 324 326 345 332 321 303 293 294 292 287 334 279 289 288 291 289 280 261 255 256 248 239 235 231 233 234 231 231 232 231 235 242 248 252 254 246 241 238 237 232 224 223 224 228
189 199 216 300 322 332 308 308 310 299 291 281 290 294 296 304 298 288 291 290 293 294 272 262 260 257 247 238 236 234 234 233 231 232 231 234 240 243 246 248 246 242 237 234 232 228 230 231 235
209 231 249 275 299 317 275 293 289 271 273 288 285 287 291 294 295 294 288 288 290 283 288 279 266 261 256 249 243 240 236 235 233 235 231 231 238 239 241 243 243 243 240 237 235 230 233 233 232
228 251 280 290 295 283 288 277 265 281 293 312 304 288 287 290 295 299 301 287 289 284 275 275 273 267 264 254 247 245 242 238 238 239 241 237 241 245 240 242 243 241 239 236 235 233 234 235 237
318 323 305 301 287 280 266 280 232 276 309 316 319 304 309 301 315 318 314 303 283 290 288 274 272 272 264 263 255 249 248 248 247 244 248 250 244 248 247 243 244 242 241 239 237 236 235 234 235
324 331 316 273 272 236 241 308 231 276 305 304 319 312 313 326 320 313 310 288 271 266 259 264 270 272 263 258 259 252 247 249 252 251 250 250 248 253 248 247 248 246 243 241 239 236 234 233 234
312 64 314 288 13 261 172 251 267 286 292 307 297 299 309 333 351 322 324 292 267 267 262 238 256 263 264 260 258 256 249 247 253 258 258 254 252 255 247 250 251 250 246 244 242 240 237 237 238
309 239 224 311 2 161 188 248 256 281 288 284 287 303 7 127 46 29 359 343 309 299 267 216 215 251 276 264 259 258 255 250 252 257 258 261 258 256 256 257 256 255 250 247 246 244 242 241 239
220 246 291 279 305 341 285 256 263 274 284 284 301 332 88 64 45 34 27 11 319 279 232 175 197 211 239 251 252 252 250 250 249 250 248 254 252 256 259 260 258 256 254 252 250 248 246 244 241
275 239 256 263 277 306 281 302 291 269 271 289 19 113 89 70 59 56 51 44 37 42 215 192 157 157 180 225 243 249 249 248 247 241 246 250 250 250 260 261 260 259 257 255 255 253 249 244 237
306 314 284 287 269 345 296 298 278 299 40 83 104 99 95 88 74 65 62 61 59 60 67 88 122 146 192 218 237 246 243 243 245 249 248 247 252 253 256 262 263 261 259 256 255 253 251 246 240
262 225 248 238 320 298 313 292 284 46 84 85 91 97 89 87 81 73 67 64 62 60 59 62 71 87 112 207 206 225 233 235 238 232 242 251 255 258 259 255 259 263 262 260 257 255 254 250 244
267 260 240 263 58 225 64 284 295 129 100 89 96 92 88 83 80 77 72 66 62 59 59 57 57 57 59 60 67 54 176 223 244 258 250 258 260 261 261 260 259 266 266 262 261 260 255 252 248
223 58 296 222 200 349 278 136 260 129 140 104 92 89 81 78 76 71 65 61 59 55 52 52 50 52 50 44 41 44 47 358 248 259 263 255 260 264 261 261 259 258 258 263 263 261 257 255 253
114 30 298 73 120 299 239 181 280 181 183 136 106 100 94 85 79 72 61 53 49 46 42 38 36 40 42 41 41 40 36 26 351 298 284 291 288 268 269 274 268 260 257 258 260 263 263 261 259
78 69 322 1 15 227 302 192 248 333 112 138 122 111 105 95 81 71 60 56 51 42 35 28 23 25 25 25 28 32 29 23 23 15 353 325 307 298 298 287 271 269 272 263 259 259 260 262 263
183 167 163 237 226 267 328 256 302 74 94 109 115 115 109 91 73 58 47 37 36 38 40 37 34 33 27 22 22 21 16 16 19 16 9 0 353 341 319 299 293 291 282 272 270 263 259 260 262
198 183 171 102 335 46 235 270 83 100 101 113 124 130 125 115 83 44 26 12 6 8 18 27 35 41 38 33 29 23 16 10 13 9 2 358 356 351 345 339 332 311 298 290 279 269 267 266 263
149 170 68 27 212 241 275 262 219 183 150 149 151 145 143 134 97 4 340 346 357 4 27 42 33 29 28 24 22 17 12 7 360 352 347 344 344 346 346 346 341 332 320 309 299 291 279 269 267
65 217 139 149 178 202 240 261 117 123 164 164 159 165 180 188 191 204 211 182 64 46 38 37 35 28 21 14 6 360 358 350 343 338 333 330 333 330 332 334 336 334 329 322 314 307 299 287 278
186 227 186 213 241 252 243 260 134 131 144 157 185 198 202 216 206 204 193 188 157 41 25 23 16 11 7 1 358 353 349 343 338 334 331 329 324 322 320 318 316 320 322 321 317 311 305 303 297